"America/Chicago Time","Lifetime Energy (kWh)","Power (W)","AC Volts RMS (V) ","AC Amps RMS (mA)","Grid Frequency (Hz)","Inverter Temperature (C)"
"05/09/12 09:21:59","66.1034","118.6","218.16","556","60.0","23"
"05/09/12 09:26:58","66.1128","122.6","217.51","571","60.03","23"
"05/09/12 09:31:58","66.1225","124.9","217.42","584","60.03","23"
"05/09/12 09:36:58","66.1323","126.1","217.41","593","60.03","24"
"05/09/12 09:41:58","66.1422","129.6","218.0","607","60.0","24"
"05/09/12 09:46:58","66.1525","132.0","218.19","612","60.03","24"
"05/09/12 09:51:57","66.1627","134.0","217.95","620","60.03","25"
"05/09/12 09:56:58","66.1733","137.3","218.62","635","60.07","25"
"05/09/12 10:01:57","66.1841","139.8","218.62","646","60.03","25"
"05/09/12 10:06:58","66.1951","141.6","217.96","652","60.0","25"
"05/09/12 10:11:57","66.2061","145.1","217.88","670","60.03","25"
"05/09/12 10:16:58","66.2176","147.4","218.33","679","60.0","26"
"05/09/12 10:21:58","66.229","146.9","218.4","675","60.0","26"
"05/09/12 10:26:58","66.2406","148.3","218.47","682","60.0","26"
"05/09/12 10:31:57","66.2521","150.2","218.1","690","60.0","26"
"05/09/12 10:36:57","66.2639","151.9","218.47","695","60.0","27"
"05/09/12 10:41:58","66.2758","153.3","218.6","701","60.0","27"
"05/09/12 10:46:58","66.2879","155.0","218.72","714","60.03","27"
"05/09/12 10:51:58","66.3","156.0","218.83","714","60.03","27"
"05/09/12 10:56:58","66.3121","156.5","218.9","714","60.03","28"
"05/09/12 11:01:58","66.3243","157.9","219.2","716","60.03","28"
"05/09/12 11:06:59","66.3368","161.0","217.95","740","60.03","27"
"05/09/12 11:11:57","66.3493","161.3","218.75","738","60.07","27"
"05/09/12 11:16:58","66.3619","161.5","219.21","735","60.0","28"
"05/09/12 11:21:58","66.3745","163.3","218.27","747","60.03","28"
"05/09/12 11:26:57","66.3872","163.7","218.44","747","60.0","28"
"05/09/12 11:31:58","66.4001","164.1","218.2","753","60.0","28"
"05/09/12 11:36:58","66.4129","164.4","218.22","747","60.0","28"
"05/09/12 11:41:57","66.4256","164.0","217.7","754","60.03","29"
"05/09/12 11:46:59","66.4385","166.0","218.22","759","60.0","29"
"05/09/12 11:51:58","66.4514","165.5","218.19","753","60.0","30"
"05/09/12 11:56:57","66.4644","168.3","218.53","764","60.03","30"
"05/09/12 12:01:57","66.4776","169.7","218.84","772","60.03","30"
"05/09/12 12:06:58","66.4909","168.6","218.7","765","60.03","30"
"05/09/12 12:11:57","66.504","171.5","218.46","783","60.03","30"
"05/09/12 12:16:58","66.5174","172.6","218.83","783","60.03","30"
"05/09/12 12:21:58","66.5306","168.2","218.55","764","60.03","30"
"05/09/12 12:26:57","66.5437","168.9","218.76","769","60.03","30"
"05/09/12 12:31:57","66.5569","169.7","218.51","772","60.0","30"
"05/09/12 12:36:59","66.5701","166.7","218.79","763","60.03","30"
"05/09/12 12:41:57","66.583","167.3","217.12","767","60.0","29"
"05/09/12 12:46:57","66.5962","167.8","217.82","769","60.03","29"
"05/09/12 12:51:58","66.6094","168.9","217.91","771","60.0","28"
"05/09/12 12:56:58","66.6224","168.1","218.2","770","60.03","28"
"05/09/12 13:01:59","66.6356","168.7","218.79","767","60.03","27"
"05/09/12 13:06:57","66.6485","164.7","218.32","752","60.03","28"
"05/09/12 13:11:58","66.6613","163.5","218.51","748","60.03","28"
"05/09/12 13:16:58","66.674","163.2","217.51","747","60.03","29"
"05/09/12 13:21:59","66.6867","162.6","217.28","748","60.03","29"
"05/09/12 13:26:58","66.6994","162.9","217.94","744","60.03","29"
"05/09/12 13:31:57","66.712","161.2","217.37","742","60.03","29"
"05/09/12 13:36:58","66.7246","161.0","217.31","739","60.03","28"
"05/09/12 13:41:58","66.7371","160.3","217.96","735","60.03","29"
"05/09/12 13:46:58","66.7496","160.9","217.21","734","60.0","28"
"05/09/12 13:51:59","66.7619","157.8","217.3","725","60.03","28"
"05/09/12 13:56:58","66.7742","155.9","217.73","717","60.03","28"
"05/09/12 14:01:57","66.7862","155.9","217.67","720","60.03","28"
"05/09/12 14:06:57","66.7983","153.6","217.72","708","60.03","28"
"05/09/12 14:11:58","66.8102","153.3","217.48","705","60.03","28"
"05/09/12 14:16:57","66.822","151.0","217.31","691","60.03","28"
"05/09/12 14:21:59","66.8338","149.6","218.07","690","60.03","28"
"05/09/12 14:26:57","66.8453","148.0","217.87","683","60.03","28"
"05/09/12 14:31:57","66.8567","145.4","218.12","670","60.03","28"
"05/09/12 14:36:58","66.8679","143.9","218.07","661","60.03","29"
"05/09/12 14:41:58","66.8791","141.9","217.62","654","60.03","29"
"05/09/12 14:46:57","66.89","141.1","217.21","654","60.03","28"
"05/09/12 14:51:59","66.901","139.9","216.62","653","60.03","27"
"05/09/12 14:56:58","66.9118","137.0","217.53","639","60.03","27"
"05/09/12 15:01:58","66.9224","134.6","217.43","624","60.03","27"
"05/09/12 15:06:58","66.9328","132.7","216.9","620","60.03","27"
"05/09/12 15:11:58","66.9429","128.0","217.7","600","60.03","27"
"05/09/12 15:16:58","66.9528","126.7","217.85","589","60.03","27"
"05/09/12 15:21:59","66.9626","124.7","217.35","582","60.03","27"
"05/09/12 15:26:57","66.9722","122.5","217.83","570","60.0","27"
"05/09/12 15:31:59","66.9817","120.2","217.8","561","60.03","27"
"05/09/12 15:36:58","66.9909","117.5","217.23","549","60.03","27"
"05/09/12 15:41:57","66.9999","114.1","217.3","540","60.03","27"
"05/09/12 15:46:58","67.0088","111.9","216.84","531","60.03","26"
"05/09/12 15:51:58","67.0174","109.6","217.92","518","60.03","26"
"05/09/12 15:56:58","67.0258","107.1","217.84","509","60.07","26"
"05/09/12 16:01:58","67.0341","104.5","218.12","499","60.03","25"
"05/09/12 16:06:58","67.0421","101.9","218.02","482","60.03","25"
"05/09/12 16:11:58","67.0498","98.1","217.46","467","60.03","25"
"05/09/12 16:16:58","67.0574","94.8","217.52","454","60.03","25"
"05/09/12 16:21:59","67.0646","91.6","216.73","445","60.03","25"
"05/09/12 16:26:58","67.0717","88.6","217.23","425","60.0","25"
"05/09/12 16:31:58","67.0785","86.0","216.48","415","60.03","24"
"05/09/12 16:36:57","67.085","82.7","216.02","407","60.03","24"
"05/09/12 16:41:57","67.0913","79.3","216.29","389","60.03","23"
"05/09/12 16:46:58","67.0974","76.2","216.24","377","60.0","23"
"05/09/12 16:51:58","67.1031","72.2","215.35","362","60.0","23"
"05/09/12 16:56:58","67.1085","68.4","216.6","343","60.03","23"
"05/09/12 17:01:58","67.1137","64.8","215.97","328","60.03","23"
"05/09/12 17:06:58","67.1186","61.3","215.86","315","60.03","23"
"05/09/12 17:12:01","67.1225","45.6","215.44","349","60.03","23"
"05/09/12 17:17:02","67.1264","39.7","216.12","381","60.03","23"
"05/09/12 17:22:01","67.1301","44.9","215.73","98","60.03","22"
"05/09/12 17:27:02","67.1339","47.1","215.64","385","60.03","22"
"05/09/12 17:32:03","67.1374","49.2","215.0","322","60.03","22"
"05/09/12 17:37:02","67.1406","45.3","215.1","86","60.03","22"
"05/09/12 17:42:01","67.1434","40.7","214.2","115","60.03","22"
"05/09/12 17:47:02","67.1461","36.0","215.37","104","60.03","21"
"05/09/12 17:52:02","67.1482","38.2","214.9","218","60.03","20"
"05/09/12 17:57:03","67.1503","21.9","215.08","47","60.03","20"
"05/09/12 18:02:01","67.1522","23.5","214.38","275","60.0","20"
"05/09/12 18:07:03","67.1538","26.6","214.6","104","60.0","19"
"05/09/12 18:12:02","67.1551","14.5","214.66","104","60.03","19"
"05/09/12 18:17:02","67.1563","16.7","213.92","1","60.03","19"
"05/09/12 18:22:01","67.1572","16.4","213.73","271","60.0","18"
"05/09/12 18:27:02","67.1579","14.0","213.84","4","60.0","18"
"05/09/12 18:32:01","67.1584","0.0","213.91","0","60.0","18"
"05/09/12 18:37:02","67.1589","13.3","213.98","1","60.03","17"
"05/09/12 18:42:03","67.1594","11.3","214.11","8","60.07","17"
"05/09/12 18:47:01","67.1597","0.0","214.34","0","60.03","17"
"05/09/12 18:52:02","67.1601","14.5","213.08","1","60.03","17"
"05/09/12 18:57:03","67.1604","0.0","213.69","144","60.03","17"
"05/09/12 19:02:01","67.1607","0.0","214.28","0","60.03","17"
"05/09/12 19:07:03","67.1609","0.0","214.32","0","60.0","17"
"05/09/12 19:12:02","67.1612","11.2","214.15","10","60.03","16"
"05/09/12 19:17:02","67.1615","0.0","213.77","0","60.03","16"
"05/10/12 06:22:02","67.1629","0.0","213.53","0","60.07","12"
"05/10/12 06:27:03","67.1633","0.0","214.09","0","60.03","12"
"05/10/12 06:32:03","67.1639","0.0","213.81","214","60.03","12"
"05/10/12 06:37:02","67.1645","14.1","213.88","2","60.03","13"
"05/10/12 06:42:02","67.1655","11.9","214.22","91","60.03","13"
"05/10/12 06:47:02","67.1666","12.3","214.01","136","60.03","13"
"05/10/12 06:52:02","67.168","20.7","213.55","133","60.03","13"
"05/10/12 06:57:02","67.1696","30.0","214.41","90","60.07","14"
"05/10/12 07:02:03","67.1715","35.3","214.61","197","60.0","15"
"05/10/12 07:07:03","67.1737","25.1","214.35","233","60.03","15"
"05/10/12 07:12:03","67.1761","34.2","215.31","155","60.0","15"
"05/10/12 07:17:02","67.1787","35.8","215.42","207","60.0","16"
"05/10/12 07:22:03","67.1817","43.7","214.89","345","60.03","17"
"05/10/12 07:27:02","67.1848","49.3","215.04","97","60.03","17"
"05/10/12 07:32:03","67.1883","53.6","214.79","174","60.03","17"
"05/10/12 07:37:02","67.192","61.0","214.71","286","60.0","18"
"05/10/12 07:42:02","67.1959","47.6","214.05","428","60.0","18"
"05/10/12 07:47:03","67.1998","57.1","214.13","377","60.0","19"
"05/10/12 07:52:02","67.2036","40.6","215.16","365","60.03","19"
"05/10/12 07:57:03","67.2075","63.3","215.34","138","60.0","19"
"05/10/12 08:02:03","67.2115","52.3","216.2","191","60.0","20"
"05/10/12 08:07:02","67.2158","45.7","215.98","173","60.03","20"
"05/10/12 08:12:03","67.2203","71.6","216.11","328","60.0","21"
"05/10/12 08:17:03","67.2259","78.7","215.47","391","60.0","21"
"05/10/12 08:22:03","67.2323","82.8","215.0","408","60.0","22"
"05/10/12 08:27:04","67.2388","86.1","214.63","421","60.03","22"
"05/10/12 08:32:03","67.2456","89.1","214.89","437","60.07","22"
"05/10/12 08:37:02","67.2526","91.7","215.08","449","60.03","23"
"05/10/12 08:42:03","67.2599","95.2","215.0","460","60.03","23"
"05/10/12 08:47:03","67.2675","98.5","214.91","473","60.0","24"
"05/10/12 08:52:03","67.2752","101.2","214.05","489","60.07","24"
"05/10/12 08:57:03","67.2832","104.6","215.76","501","60.03","24"
"05/10/12 09:02:03","67.2914","107.4","215.43","515","60.03","25"
"05/10/12 09:07:03","67.2999","109.9","215.37","526","60.07","25"
"05/10/12 09:12:03","67.3086","112.6","216.06","536","60.03","26"
"05/10/12 09:17:03","67.3174","115.3","217.39","545","60.03","26"
"05/10/12 09:22:03","67.3265","118.2","217.17","558","60.03","26"
"05/10/12 09:27:03","67.3358","120.8","217.35","565","60.03","26"
"05/10/12 09:32:02","67.3452","123.2","217.06","576","60.03","27"
"05/10/12 09:37:03","67.3549","126.0","216.54","592","60.03","27"
"05/10/12 09:42:02","67.3647","127.3","217.33","597","60.03","27"
"05/10/12 09:47:02","67.3747","129.8","217.31","605","60.03","28"
"05/10/12 09:52:03","67.385","132.2","217.0","615","60.03","28"
"05/10/12 09:57:02","67.3953","133.5","217.02","622","60.03","28"
"05/10/12 10:02:02","67.4058","136.1","217.3","631","60.0","29"
"05/10/12 10:07:02","67.4164","137.7","216.99","639","60.0","29"
"05/10/12 10:12:03","67.4273","139.6","216.6","650","60.03","30"
"05/10/12 10:17:03","67.4382","140.8","217.91","653","60.03","30"
"05/10/12 10:22:02","67.4492","143.1","217.95","662","60.03","30"
"05/10/12 10:27:02","67.4604","144.3","217.99","664","60.03","31"
"05/10/12 10:32:04","67.4718","145.6","217.79","670","60.0","31"
"05/10/12 10:37:03","67.4832","146.6","216.97","679","60.03","32"
"05/10/12 10:42:02","67.4946","148.0","217.27","684","60.0","32"
"05/10/12 10:47:03","67.5063","149.9","217.69","691","60.0","32"
"05/10/12 10:52:02","67.518","151.6","218.05","700","60.03","32"
"05/10/12 10:57:02","67.5299","152.8","217.84","704","60.03","32"
"05/10/12 11:02:03","67.5418","153.2","218.16","707","60.03","32"
"05/10/12 11:07:03","67.5539","154.9","218.89","709","60.03","33"
"05/10/12 11:12:03","67.5659","154.3","218.21","706","60.03","33"
"05/10/12 11:17:02","67.578","155.9","218.55","714","60.0","33"
"05/10/12 11:22:03","67.5902","157.3","218.54","720","60.0","33"
"05/10/12 11:27:03","67.6026","158.1","218.17","727","60.03","33"
"05/10/12 11:32:03","67.615","158.9","217.82","728","60.03","34"
"05/10/12 11:37:02","67.6273","159.6","217.96","729","60.0","34"
"05/10/12 11:42:04","67.6398","160.2","218.52","734","60.03","34"
"05/10/12 11:47:03","67.6522","161.1","218.05","738","60.03","34"
"05/10/12 11:52:03","67.6648","160.8","218.55","736","60.03","34"
"05/10/12 11:57:04","67.6774","161.9","218.47","738","60.0","34"
"05/10/12 12:02:02","67.69","162.0","217.83","740","60.03","35"
"05/10/12 12:07:04","67.7027","162.7","218.23","747","60.03","35"
"05/10/12 12:12:02","67.7153","163.6","218.17","743","60.03","34"
"05/10/12 12:17:03","67.728","162.8","218.5","741","60.03","35"
"05/10/12 12:22:02","67.7407","163.3","218.54","741","60.03","35"
"05/10/12 12:27:03","67.7534","163.0","218.2","746","60.03","35"
"05/10/12 12:32:03","67.7662","163.2","217.87","750","60.03","35"
"05/10/12 12:37:04","67.7788","162.4","218.4","743","60.0","35"
"05/10/12 12:42:03","67.7915","162.2","218.46","740","60.0","35"
"05/10/12 12:47:02","67.8041","162.0","217.87","746","60.03","35"
"05/10/12 12:52:02","67.8167","162.2","217.97","742","60.03","35"
"05/10/12 12:57:03","67.8293","161.7","218.36","740","60.03","35"
"05/10/12 13:02:03","67.842","160.3","218.37","730","60.03","36"
"05/10/12 13:07:03","67.8544","159.5","217.89","733","60.0","36"
"05/10/12 13:12:03","67.8668","159.4","217.82","731","60.03","36"
"05/10/12 13:17:03","67.8792","158.9","217.93","728","60.03","36"
"05/10/12 13:22:03","67.8915","157.1","217.21","726","60.03","36"
"05/10/12 13:27:03","67.9038","157.6","218.38","726","60.03","36"
"05/10/12 13:32:04","67.9161","156.4","218.32","717","60.0","36"
"05/10/12 13:37:03","67.9283","155.3","217.98","712","60.03","36"
"05/10/12 13:42:03","67.9403","155.4","217.65","711","60.0","36"
"05/10/12 13:47:02","67.9523","154.0","218.4","709","60.0","36"
"05/10/12 13:52:03","67.9643","151.5","218.82","696","60.0","36"
"05/10/12 13:57:03","67.976","150.4","219.54","688","60.03","36"
"05/10/12 14:02:03","67.9878","149.8","218.6","686","60.03","36"
"05/10/12 14:07:02","67.9993","148.4","218.65","684","60.03","37"
"05/10/12 14:12:04","68.011","148.5","219.23","678","60.0","36"
"05/10/12 14:17:02","68.0224","146.2","218.37","672","60.0","36"
"05/10/12 14:22:03","68.0338","144.8","219.29","665","60.03","36"
"05/10/12 14:27:02","68.045","142.9","218.49","660","60.03","36"
"05/10/12 14:32:03","68.0561","141.1","218.52","653","60.03","35"
"05/10/12 14:37:02","68.067","139.3","218.64","645","60.0","35"
"05/10/12 14:42:03","68.0779","137.5","217.97","635","60.0","35"
"05/10/12 14:47:02","68.0885","135.6","219.2","629","60.03","35"
"05/10/12 14:52:04","68.0991","133.7","217.8","621","60.03","35"
"05/10/12 14:57:02","68.1092","132.6","217.34","612","60.0","35"
"05/10/12 15:02:03","68.1195","130.7","218.15","605","60.07","35"
"05/10/12 15:07:03","68.1295","127.8","218.03","596","60.07","35"
"05/10/12 15:12:02","68.1394","125.8","218.07","588","60.0","34"
"05/10/12 15:17:03","68.1492","124.2","217.66","580","60.03","34"
"05/10/12 15:27:03","68.1682","119.5","217.44","562","60.0","34"
"05/10/12 15:32:02","68.1774","117.4","218.17","551","60.0","33"
"05/10/12 15:37:03","68.1865","114.7","218.25","536","60.03","33"
"05/10/12 15:42:04","68.1953","111.9","217.93","526","60.0","33"
"05/10/12 15:47:02","68.2039","109.3","217.56","519","60.03","33"
"05/10/12 15:52:02","68.2123","106.6","217.32","508","60.0","33"
"05/10/12 15:57:04","68.2205","104.7","217.03","500","60.03","32"
"05/10/12 16:02:03","68.2285","101.6","217.22","487","60.0","32"
"05/10/12 16:07:03","68.2363","98.8","216.87","472","60.0","32"
"05/10/12 16:12:03","68.2439","95.1","217.22","460","60.03","32"
"05/10/12 16:17:02","68.2512","92.8","217.36","446","60.0","32"
"05/10/12 16:22:03","68.2583","88.7","216.92","433","60.03","31"
"05/10/12 16:27:03","68.265","85.9","217.74","415","60.03","31"
"05/10/12 16:32:02","68.2716","82.7","217.14","403","60.03","31"
"05/10/12 16:37:04","68.2778","79.5","217.2","386","60.0","31"
"05/10/12 16:42:03","68.2839","76.1","216.21","379","60.0","30"
"05/10/12 16:47:03","68.2897","73.0","216.79","361","60.03","30"
"05/10/12 16:52:03","68.2953","69.7","217.31","350","60.03","30"
"05/10/12 16:57:02","68.3004","65.9","216.51","336","60.03","30"
"05/10/12 17:02:02","68.3054","62.3","216.83","319","60.07","29"
"05/10/12 17:07:03","68.31","56.4","216.11","305","60.0","29"
"05/10/12 17:12:02","68.3138","55.6","216.08","238","60.03","30"
"05/10/12 17:17:02","68.3176","46.5","216.45","325","60.0","29"
"05/10/12 17:22:02","68.3215","56.0","215.86","118","60.0","29"
"05/10/12 17:27:03","68.325","39.9","215.93","186","60.03","29"
"05/10/12 17:32:03","68.3283","35.6","215.61","350","60.0","29"
"05/10/12 17:37:04","68.3314","42.9","215.83","264","60.03","28"
"05/10/12 17:42:02","68.3342","36.7","215.98","216","60.03","28"
"05/10/12 17:47:03","68.3366","26.7","215.49","153","60.0","28"
"05/10/12 17:52:03","68.3389","26.6","215.35","85","60.03","28"
"05/10/12 17:57:04","68.3409","26.5","215.79","21","60.03","27"
"05/10/12 18:02:03","68.3427","28.9","215.7","110","60.03","27"
"05/10/12 18:07:03","68.3442","24.5","215.85","67","60.03","27"
"05/10/12 18:12:02","68.3455","11.6","214.91","11","60.03","27"
"05/10/12 18:17:02","68.3465","15.6","214.53","0","60.0","26"
"05/10/12 18:22:02","68.3474","15.2","214.19","0","60.0","25"
"05/10/12 18:27:03","68.348","0.0","214.23","0","60.03","24"
"05/10/12 18:32:02","68.3486","10.6","214.23","0","60.03","23"
"05/10/12 18:37:03","68.349","0.0","214.19","0","60.03","23"
"05/10/12 18:42:03","68.3494","0.0","214.68","0","60.03","22"
"05/10/12 18:47:04","68.3497","0.0","214.76","0","60.03","22"
"05/10/12 18:52:03","68.35","0.0","213.98","0","60.03","21"
"05/10/12 18:57:04","68.3503","0.0","214.45","0","60.03","20"
"05/10/12 19:02:03","68.3506","0.0","213.13","157","60.0","20"
"05/10/12 19:07:03","68.3508","5.4","213.46","179","60.03","19"
"05/10/12 19:12:03","68.351","12.8","213.3","4","60.03","19"
"05/11/12 06:22:03","68.3523","0.0","212.84","0","60.07","12"
"05/11/12 06:27:04","68.3526","12.2","213.45","3","60.0","12"
"05/11/12 06:32:02","68.3532","0.0","213.55","0","60.0","12"
"05/11/12 06:37:02","68.3539","14.5","214.61","242","60.03","13"
"05/11/12 06:42:02","68.3549","10.4","214.69","27","60.03","13"
"05/11/12 06:47:03","68.356","22.0","214.89","246","60.03","14"
"05/11/12 06:52:04","68.3575","15.3","215.03","119","60.03","14"
"05/11/12 06:57:03","68.3591","21.9","214.68","237","60.03","15"
"05/11/12 07:02:03","68.361","26.4","214.17","309","59.96","15"
"05/11/12 07:07:04","68.3632","25.6","214.1","248","60.0","16"
"05/11/12 07:12:04","68.3652","21.2","214.01","177","60.0","17"
"05/11/12 07:17:03","68.3674","33.2","214.8","174","60.0","17"
"05/11/12 07:22:04","68.3702","35.0","215.22","100","60.03","18"
"05/11/12 07:27:02","68.3731","34.7","215.22","112","60.0","18"
"05/11/12 07:32:04","68.3763","47.2","214.53","96","60.0","18"
"05/11/12 07:37:03","68.38","47.6","214.94","421","60.03","19"
"05/11/12 07:42:02","68.3838","56.5","215.63","104","60.03","19"
"05/11/12 07:47:03","68.3865","29.7","214.16","164","60.0","19"
"05/11/12 07:52:04","68.3902","57.2","215.66","296","60.03","20"
"05/11/12 07:57:02","68.3942","41.6","216.07","276","60.03","20"
"05/11/12 08:02:03","68.3986","45.2","215.56","257","60.0","21"
"05/11/12 08:07:03","68.403","65.3","214.96","351","60.03","22"
"05/11/12 08:12:03","68.4072","57.8","215.47","113","60.0","22"
"05/11/12 08:17:04","68.4132","79.1","215.77","390","60.0","22"
"05/11/12 08:22:04","68.4195","82.3","216.35","406","60.03","22"
"05/11/12 08:27:04","68.4259","77.7","215.9","384","60.0","23"
"05/11/12 08:32:02","68.432","89.0","216.6","429","60.03","23"
"05/11/12 08:37:03","68.4388","90.3","216.01","438","60.0","23"
"05/11/12 08:42:04","68.446","91.1","215.92","444","60.03","24"
"05/11/12 08:47:03","68.4533","96.6","216.69","463","60.03","24"
"05/11/12 08:52:04","68.4608","98.3","216.19","474","60.0","25"
"05/11/12 08:57:03","68.4685","101.0","216.54","483","60.0","25"
"05/11/12 09:02:02","68.4764","102.4","216.75","489","60.0","25"
"05/11/12 09:07:04","68.4846","106.6","217.01","502","60.0","26"
"05/11/12 09:12:03","68.493","109.1","217.06","520","60.03","26"
"05/11/12 09:17:02","68.5016","112.1","216.58","534","60.0","26"
"05/11/12 09:22:02","68.5104","114.5","216.64","542","60.03","27"
"05/11/12 09:27:03","68.5195","117.9","215.64","558","60.03","27"
"05/11/12 09:32:04","68.5288","119.6","216.78","559","60.0","27"
"05/11/12 09:37:04","68.5382","122.1","216.38","575","60.03","28"
"05/11/12 09:42:03","68.5478","125.8","217.13","590","60.03","28"
"05/11/12 09:47:04","68.5576","124.3","217.9","579","60.03","29"
"05/11/12 09:52:04","68.5675","128.4","217.23","599","59.96","29"
"05/11/12 09:57:04","68.5772","118.6","217.07","556","60.0","29"
"05/11/12 10:02:03","68.5862","116.9","217.53","551","60.03","29"
"05/11/12 10:12:03","68.6057","123.7","217.5","579","60.0","30"
"05/11/12 10:17:03","68.6157","131.3","218.52","611","60.03","30"
"05/11/12 10:22:04","68.6256","123.4","218.07","576","60.0","31"
"05/11/12 10:27:04","68.6351","112.9","217.34","533","60.07","31"
"05/11/12 10:32:03","68.6452","140.3","217.93","650","60.0","32"
"05/11/12 10:37:03","68.6563","143.0","218.13","662","60.0","32"
"05/11/12 10:42:04","68.6676","146.5","217.63","676","60.0","32"
"05/11/12 10:47:02","68.679","146.5","218.09","675","60.07","33"
"05/11/12 10:52:03","68.6901","143.7","218.12","661","60.0","33"
"05/11/12 10:57:03","68.7015","149.2","219.13","689","60.07","34"
"05/11/12 11:02:03","68.7131","147.3","218.43","675","60.0","34"
"05/11/12 11:07:04","68.7131","149.4","218.97","684","60.03","35"
"05/11/12 11:12:03","68.7247","150.5","218.74","693","60.0","35"
"05/11/12 11:17:03","68.7365","152.2","218.49","695","60.03","35"
"05/11/12 11:22:04","68.7483","152.3","218.36","698","60.03","35"
"05/11/12 11:27:04","68.7602","153.5","218.12","704","60.03","35"
"05/11/12 11:32:04","68.772","153.7","218.5","704","60.03","35"
"05/11/12 11:37:04","68.7838","149.6","218.44","689","59.96","35"
"05/11/12 11:42:03","68.7952","143.7","218.09","667","60.03","35"
"05/11/12 11:47:04","68.8065","139.7","218.61","646","60.03","35"
"05/11/12 11:52:04","68.8174","139.2","218.17","645","60.03","34"
"05/11/12 11:57:04","68.8279","134.6","217.74","624","60.03","34"
"05/11/12 12:02:04","68.8384","134.8","217.72","627","60.0","34"
"05/11/12 12:07:03","68.8487","140.9","218.74","647","60.03","34"
"05/11/12 12:12:02","68.8602","141.9","218.49","656","60.03","35"
"05/11/12 12:17:03","68.8716","149.8","218.34","691","60.03","35"
"05/11/12 12:22:03","68.8833","148.8","217.53","686","60.03","36"
"05/11/12 12:27:04","68.8953","155.4","217.85","715","60.07","36"
"05/11/12 12:32:02","68.9074","151.6","218.01","694","60.03","36"
"05/11/12 12:37:02","68.9191","148.7","217.61","689","60.03","37"
"05/11/12 12:42:03","68.9309","153.3","218.07","706","60.03","37"
"05/11/12 12:47:04","68.9426","148.0","217.88","683","60.03","37"
"05/11/12 12:52:04","68.9524","148.8","217.64","686","60.03","37"
"05/11/12 12:57:03","68.9638","148.6","218.55","683","60.03","37"
"05/11/12 13:02:03","68.976","152.6","218.24","699","60.0","37"
"05/11/12 13:07:04","68.9856","141.2","218.15","653","60.03","36"
"05/11/12 13:12:03","68.997","144.3","218.72","663","60.03","37"
"05/11/12 13:17:03","69.0076","115.9","217.34","544","60.0","36"
"05/11/12 13:22:03","69.0172","43.4","215.28","420","60.03","36"
"05/11/12 13:27:03","69.0208","46.7","215.71","123","60.03","34"
"05/11/12 13:32:04","69.0242","32.9","215.11","319","60.0","33"
"05/11/12 13:37:03","69.0265","35.6","215.39","160","60.03","32"
"05/11/12 13:42:04","69.0282","26.6","214.2","170","60.0","32"
"05/11/12 13:47:03","69.0296","11.2","214.22","232","60.03","31"
"05/11/12 13:52:04","69.0313","28.7","215.27","40","60.07","30"
"05/11/12 13:57:02","69.034","37.8","214.76","124","60.03","29"
"05/11/12 14:02:04","69.0381","75.3","216.24","375","60.03","29"
"05/11/12 14:07:03","69.0448","78.5","215.84","386","60.03","29"
"05/11/12 14:12:04","69.05","40.3","214.4","137","60.03","29"